Theta_e
281 281 281 281 281 283 283 283 283 283 283 284 283 284 284 284 284 284 285 285 285 285 285 285 285 285 285 285 285 285 285 285 286 286 286 286 286 285 285 285 285 285 285 285 286 286 286 286 286 286 287 286 287 287 287 286 285 285 286 286 286 286
283 283 283 283 283 283 285 285 285 284 285 284 284 284 284 284 285 285 286 286 286 285 284 284 285 284 284 284 284 284 284 284 285 285 285 285 285 284 284 283 284 285 285 285 285 285 285 286 286 286 286 286 286 286 286 287 285 285 285 286 286 286
284 284 284 284 283 283 284 284 284 285 284 284 284 284 284 284 284 284 284 285 285 284 283 283 283 283 284 283 283 283 283 283 284 284 284 283 283 284 283 283 284 284 284 284 285 285 285 285 286 286 286 285 285 285 285 285 285 285 285 285 285 285
284 283 283 283 284 284 283 283 284 284 284 283 283 283 283 284 284 283 283 282 283 282 283 283 282 282 282 281 280 281 282 282 282 283 283 282 283 283 283 282 283 284 284 284 284 284 284 284 285 285 285 285 286 286 287 286 285 285 285 285 284 285
284 283 282 282 282 282 283 282 282 282 282 282 281 282 281 282 282 282 282 282 283 282 281 281 282 282 282 281 281 281 281 280 281 282 282 283 282 282 281 281 282 282 283 283 283 283 283 284 283 284 284 284 285 285 285 286 286 286 286 285 285 285
282 282 282 283 282 282 281 281 281 281 280 280 280 281 280 280 280 281 281 281 281 280 280 281 281 281 281 281 281 281 281 281 282 282 282 283 282 281 281 280 281 281 282 282 282 282 282 282 283 283 283 284 284 284 284 285 285 285 285 286 286 286
281 281 280 280 281 281 281 282 282 281 281 280 280 280 280 280 280 281 281 280 279 279 279 279 279 280 280 280 281 281 282 282 282 282 282 282 282 282 281 281 281 281 281 282 282 282 282 282 282 282 283 283 284 283 284 284 284 284 285 285 285 286
279 279 280 279 279 279 280 280 280 280 280 280 280 280 280 280 279 280 280 279 279 279 279 279 279 280 279 280 280 281 281 282 282 282 282 282 282 282 282 281 281 281 281 281 281 282 282 282 282 282 282 282 283 283 283 283 283 284 284 284 285 284
279 279 278 279 279 279 279 279 279 279 279 280 280 280 280 280 279 279 278 278 278 278 278 278 278 279 279 279 280 280 280 281 281 281 281 281 281 281 281 282 281 281 281 281 281 281 281 281 281 282 282 282 282 282 282 282 283 283 284 284 284 284
278 278 279 279 280 279 279 279 279 279 279 279 279 279 279 280 279 279 278 278 278 277 278 277 278 278 278 279 279 279 279 279 279 280 281 281 281 280 280 280 281 281 281 281 281 282 282 281 281 281 281 282 282 282 281 281 282 282 283 283 283 283
278 278 278 278 278 277 277 278 278 279 279 279 279 279 279 279 279 278 278 278 278 278 278 279 279 279 279 278 278 278 278 278 278 278 278 278 279 280 280 280 279 279 280 280 280 281 281 281 281 282 281 281 281 282 281 281 282 282 282 282 282 283
277 277 277 278 278 278 278 278 279 279 278 278 278 278 278 278 278 278 278 278 278 278 278 279 279 279 279 279 279 279 279 279 279 278 278 278 279 278 278 278 278 278 278 278 279 279 280 280 281 282 284 285 283 282 282 282 282 282 282 282 282 282
278 278 278 278 278 278 279 279 278 278 278 278 278 277 277 277 277 277 277 277 278 278 278 278 278 279 278 279 279 279 278 278 278 278 278 278 278 278 278 278 278 278 278 278 278 278 279 279 280 283 284 285 286 284 283 282 282 282 282 281 281 281
277 278 278 277 278 278 278 278 278 277 277 277 276 276 276 276 276 276 276 276 276 277 277 277 277 277 277 277 277 276 276 276 275 275 276 276 276 277 277 277 277 278 278 278 278 277 278 278 281 283 284 284 285 285 283 282 282 282 282 282 282 281
277 278 277 277 277 277 277 277 276 276 275 275 275 276 275 275 274 274 274 274 275 275 275 275 275 275 275 274 273 273 273 273 273 273 273 273 274 275 274 275 275 276 276 277 276 277 277 277 281 282 283 283 284 284 283 281 281 281 281 281 281 281
277 277 277 277 277 276 275 275 274 274 274 274 274 274 273 272 272 272 272 273 273 273 273 273 272 272 271 271 271 271 271 271 271 272 272 273 273 273 273 273 273 274 274 275 275 275 276 276 279 281 282 282 283 283 283 280 280 281 281 281 281 281
276 276 276 276 275 274 273 273 273 272 272 273 272 272 271 271 271 271 271 271 271 271 271 271 269 269 269 269 269 269 269 269 269 270 270 271 270 270 270 270 270 271 272 272 273 273 273 274 278 279 280 281 282 283 283 279 279 279 280 280 280 280
275 276 275 274 273 272 272 271 272 271 271 271 270 270 269 269 269 269 269 269 269 269 269 268 267 266 266 266 266 266 266 266 266 266 267 267 267 267 268 268 268 268 268 269 270 270 270 271 276 277 278 280 281 281 278 278 277 277 278 278 279 279
275 274 273 272 271 270 270 270 270 269 269 268 268 268 267 267 266 267 268 267 267 266 266 266 265 264 264 264 263 263 263 263 263 264 265 264 264 264 264 265 265 266 266 267 267 268 268 270 272 276 277 278 279 278 275 276 276 276 276 277 277 278
273 273 272 270 269 269 269 269 268 267 266 266 266 265 265 265 265 266 265 265 265 264 264 264 263 262 262 261 261 261 262 262 262 262 263 262 262 262 263 263 263 264 265 265 265 266 266 266 269 273 274 275 276 275 273 274 274 274 275 276 277 277
272 271 270 269 268 268 268 267 265 265 264 264 264 264 263 264 265 264 263 263 264 263 263 262 262 261 261 260 260 260 260 260 261 261 262 262 262 261 262 262 262 262 263 263 264 265 264 263 265 270 272 273 274 273 271 272 272 273 273 274 274 275
271 269 268 267 266 267 265 264 264 262 263 263 264 263 262 263 263 263 263 263 263 262 262 261 261 260 260 260 260 260 260 260 260 260 260 260 260 260 260 261 261 260 261 262 262 262 263 263 264 266 271 272 273 274 271 271 271 271 272 273 273 273
270 268 267 267 266 265 264 263 262 261 262 262 262 261 262 263 263 262 262 262 261 261 260 260 260 259 259 259 259 260 259 260 259 259 259 259 259 259 259 259 259 259 260 261 261 262 262 263 263 264 270 271 272 273 272 269 270 270 271 271 272 272
267 266 265 265 264 264 263 262 260 261 261 260 260 260 262 262 262 261 260 260 260 259 259 259 259 259 259 259 259 258 258 259 259 259 258 259 258 258 258 258 259 259 259 260 261 261 262 263 265 264 268 270 271 272 273 269 269 270 270 270 270 271
265 265 264 264 263 263 263 259 258 258 259 259 260 261 261 261 261 260 259 259 258 258 258 258 258 258 258 258 258 258 257 258 258 258 258 257 257 257 257 258 258 258 259 259 260 261 261 262 263 267 265 269 271 271 272 272 271 273 271 269 269 269
263 263 263 263 262 261 261 259 257 258 258 258 261 261 260 259 259 259 258 258 257 257 257 257 257 258 257 257 257 257 256 257 257 257 257 257 257 257 257 257 258 258 258 258 258 260 261 261 262 265 268 267 270 271 272 272 272 272 269 268 268 268
261 261 261 262 260 260 259 258 256 257 256 259 259 259 259 258 257 257 256 256 256 256 257 257 257 257 257 257 257 256 257 256 256 256 257 257 257 257 256 257 257 257 257 257 257 258 259 260 261 262 264 268 269 271 271 271 272 272 272 268 267 268
259 259 258 259 259 259 259 257 257 255 258 259 259 259 258 257 256 256 256 256 256 257 257 256 256 257 257 257 257 257 257 256 256 256 256 256 256 256 256 256 256 256 257 257 257 258 259 260 260 261 262 264 266 266 268 270 271 271 272 271 269 272
259 258 257 257 258 258 258 256 256 257 258 257 259 258 257 255 256 256 256 256 256 256 256 256 256 257 257 257 257 257 257 257 256 256 256 256 255 255 255 256 256 256 257 257 257 258 259 260 260 261 262 262 262 262 263 264 265 268 270 267 266 268
257 256 256 257 258 257 256 256 255 256 256 257 257 256 255 255 256 256 256 256 256 256 256 256 257 257 256 256 256 256 256 256 256 255 255 255 255 255 256 256 257 257 258 258 259 260 261 261 262 262 262 262 263 263 264 264 264 264 264 264 265 265
256 255 255 256 257 256 254 255 256 256 256 258 256 255 254 255 256 256 255 255 256 256 256 256 256 256 256 256 256 256 257 256 256 256 257 258 259 259 259 259 261 262 263 263 263 263 262 263 263 264 268 268 270 268 268 267 266 265 265 267 270 269
255 255 255 256 256 255 254 255 256 256 257 256 255 255 254 255 255 255 255 255 255 255 256 256 256 256 256 256 256 256 256 260 263 262 260 260 264 267 268 268 264 264 265 264 265 265 263 263 265 270 272 272 272 272 273 272 273 273 272 273 275 273
255 254 254 255 255 254 255 255 255 255 256 256 256 255 254 254 255 255 255 255 255 256 256 256 255 256 256 256 256 256 256 256 258 264 266 266 266 267 268 269 269 270 270 267 265 266 271 271 271 272 272 272 272 272 273 273 273 274 274 274 271 270
254 254 254 255 255 254 254 254 255 255 255 255 254 255 254 254 254 254 255 255 255 256 256 256 256 256 256 256 257 256 256 255 255 256 262 266 266 267 268 268 269 269 270 270 269 267 266 269 271 271 271 272 272 272 272 273 273 274 274 275 275 270
255 254 254 253 253 253 254 254 255 255 255 255 255 255 255 255 255 254 254 254 255 255 256 256 256 256 256 256 256 256 256 255 255 255 255 258 265 266 267 267 268 269 269 270 270 271 270 270 271 271 271 272 272 272 272 273 274 274 275 275 271 269
253 252 253 252 253 253 254 255 255 255 255 255 255 254 253 254 254 254 254 254 255 255 255 255 256 256 256 256 256 256 256 256 256 255 256 256 256 258 262 265 266 267 268 269 269 270 271 271 272 272 272 272 272 273 273 273 271 274 274 272 268 267
252 253 254 255 255 255 254 254 255 255 255 254 253 253 253 254 254 254 255 256 256 255 255 255 256 256 256 256 256 256 256 256 257 257 257 256 256 256 256 257 259 264 267 265 267 269 270 271 271 272 272 272 272 272 273 273 268 267 267 267 267 266
253 253 254 254 254 254 253 254 255 255 254 253 252 253 253 253 253 254 254 255 255 255 255 255 255 256 256 256 256 256 257 257 257 257 257 257 257 257 257 258 259 259 264 267 268 269 269 270 271 271 271 272 272 273 273 267 265 265 265 265 266 266
Wind_Speed
4 4 4 4 4 4 4 5 5 6 5 6 5 6 6 6 6 5 5 5 5 5 6 6 6 6 5 4 3 3 5 6 6 6 5 6 7 8 9 9 9 8 9 7 8 8 8 7 7 6 7 6 6 6 6 6 5 5 7 7 6 7
2 2 3 3 4 4 4 4 3 3 3 4 4 5 4 6 7 7 8 8 7 7 6 6 5 5 5 5 6 7 8 7 7 6 6 5 4 3 4 5 7 8 9 9 8 8 7 7 7 7 6 6 6 6 7 7 5 6 7 8 7 6
2 1 1 2 3 2 2 2 2 2 2 2 2 2 3 4 5 5 5 5 5 4 4 4 4 6 5 6 5 6 5 5 5 5 4 4 6 5 5 4 4 5 5 7 8 7 8 8 8 7 6 7 7 6 5 6 6 7 8 7 8 6
3 3 3 2 1 2 1 2 1 1 1 2 2 2 2 1 3 3 4 4 3 3 3 3 2 2 3 4 4 4 5 5 6 5 4 5 5 4 5 6 6 6 5 4 5 5 5 6 7 7 7 7 8 8 6 6 6 7 8 6 8 8
4 3 2 2 2 1 0 1 1 2 2 2 2 1 3 2 2 2 3 3 3 4 3 3 2 2 2 2 3 2 3 3 4 4 4 6 6 5 4 5 5 7 7 8 8 6 5 4 4 4 5 6 7 8 8 7 7 8 8 8 8 8
3 2 2 2 3 3 3 4 3 4 4 4 3 3 3 3 3 2 2 3 3 3 3 3 3 2 2 3 3 3 4 4 4 4 4 5 5 7 7 5 5 5 6 7 8 8 7 7 6 5 4 6 6 6 7 8 8 8 8 9 9 8
2 3 4 4 4 4 4 4 4 4 4 3 3 4 4 3 4 3 3 3 3 3 3 4 4 4 4 4 4 5 5 5 5 5 5 6 6 6 6 7 6 7 7 8 8 9 8 8 7 7 7 7 6 7 7 7 7 8 8 8 8 8
4 3 3 4 4 4 4 4 4 4 4 5 4 4 4 4 4 4 4 3 3 4 4 4 4 4 4 5 5 5 6 6 6 7 6 6 7 7 6 7 7 6 8 8 9 9 9 9 8 8 8 8 8 7 8 8 7 8 8 8 8 8
5 6 5 4 5 5 5 5 5 5 5 5 5 4 4 5 3 4 4 4 3 3 4 4 5 5 5 5 6 7 7 8 8 7 8 7 6 8 8 8 8 8 8 9 8 8 9 10 10 10 10 10 9 8 8 8 8 9 9 8 8 8
6 6 6 5 5 5 5 5 5 5 4 5 5 4 3 4 3 3 2 2 2 3 4 4 4 4 5 5 5 5 6 7 8 8 9 8 9 10 9 10 10 10 8 9 9 9 9 9 9 9 9 10 11 11 10 10 9 9 9 9 10 9
7 6 6 5 3 3 4 5 5 5 5 5 6 6 7 6 5 6 5 5 6 6 5 5 5 4 5 5 4 5 5 6 7 7 7 6 7 8 9 9 9 10 11 10 10 10 9 9 9 8 8 10 11 11 11 11 12 12 11 10 9 9
2 3 3 5 5 5 5 4 5 4 4 5 5 6 6 7 6 6 6 6 5 6 6 6 6 7 8 9 10 10 10 9 8 7 7 8 8 7 8 8 8 8 9 10 10 9 8 9 8 11 17 16 13 12 12 12 12 12 12 12 12 11
6 6 6 5 5 4 4 4 4 5 6 6 6 7 6 6 7 8 7 9 9 10 11 12 12 12 12 10 10 9 8 9 8 8 9 9 9 9 10 9 9 9 8 9 9 10 10 10 10 15 20 21 23 16 13 13 13 13 14 13 13 13
5 5 4 3 3 2 3 4 4 5 6 5 6 6 5 6 6 6 6 6 8 9 10 9 10 11 11 11 12 13 14 14 15 14 13 12 12 11 10 12 12 12 11 10 11 12 12 11 13 22 23 24 24 21 15 12 12 12 12 12 14 14
5 4 3 2 2 4 5 5 6 5 5 6 5 5 7 7 7 8 9 8 7 7 7 8 8 9 9 9 10 11 12 13 14 15 15 16 15 14 14 14 14 14 13 13 14 14 14 13 15 22 24 24 25 25 22 13 13 13 13 14 14 14
4 3 4 3 4 5 4 6 5 3 3 4 5 7 7 7 8 7 8 7 7 7 7 7 6 8 9 9 11 11 12 12 13 13 12 12 14 14 15 15 15 14 13 12 13 12 14 14 18 27 28 28 28 27 23 14 14 14 15 16 14 13
4 4 3 4 5 4 6 7 6 5 6 7 7 6 7 7 7 7 7 7 7 7 6 7 8 9 10 10 10 11 11 12 12 13 12 11 12 13 12 15 14 15 15 14 14 13 14 14 27 30 31 30 31 31 26 15 14 14 15 15 15 15
4 4 5 4 6 6 6 5 4 5 5 5 5 6 5 6 6 6 6 5 5 6 8 8 9 10 10 11 11 11 12 12 12 12 12 12 13 12 13 13 13 16 16 16 15 16 15 18 30 30 30 31 30 32 19 15 15 15 15 15 15 16
5 5 6 6 6 6 6 5 5 5 5 5 5 5 6 5 5 5 6 5 7 8 7 8 9 9 10 10 11 12 12 12 12 11 9 11 12 13 14 13 14 13 15 17 15 15 15 16 24 31 31 31 33 26 16 16 15 15 16 17 16 16
6 6 7 7 7 6 4 4 4 5 5 5 5 5 6 4 5 5 6 7 7 8 8 8 8 10 10 10 11 12 12 11 10 10 9 11 13 13 12 11 14 13 13 15 16 14 15 16 24 33 32 33 33 28 20 16 15 16 16 16 17 15
7 7 7 7 6 5 4 3 4 4 5 4 5 5 4 5 5 6 7 8 8 8 8 8 9 9 11 12 12 11 13 12 11 11 10 10 10 13 11 12 12 14 12 11 13 23 22 17 22 29 29 31 29 24 16 15 13 15 15 14 15 15
6 6 7 5 4 2 3 3 3 3 5 5 5 4 4 5 6 6 7 7 8 8 8 8 9 10 10 12 13 11 11 10 10 10 11 11 10 11 11 12 11 14 12 11 11 13 13 16 15 20 30 29 29 29 19 13 13 14 15 15 14 14
6 6 5 4 3 3 3 3 3 4 4 5 4 4 5 6 6 7 7 7 8 7 8 8 7 11 11 10 11 12 10 9 11 11 11 12 11 10 12 13 13 13 13 10 11 11 12 12 16 18 27 28 28 28 24 14 15 14 13 13 14 13
6 5 4 3 2 2 2 2 3 3 4 3 4 4 6 6 7 7 6 7 8 8 8 8 9 8 10 10 10 12 12 10 11 11 11 10 11 14 14 12 12 12 12 10 11 10 11 13 22 18 23 27 28 26 27 17 14 16 14 15 13 14
4 3 2 1 1 2 2 2 3 3 3 4 6 5 5 6 6 7 7 8 9 8 9 9 9 9 8 9 10 11 13 11 10 11 10 12 12 13 14 13 12 13 12 10 9 8 10 10 13 23 20 24 27 27 26 28 22 27 18 15 16 15
3 1 1 1 1 1 2 2 3 3 4 7 5 5 5 5 6 6 8 8 9 9 9 8 9 9 9 10 10 10 11 12 11 11 9 10 10 11 11 10 10 10 11 11 10 9 9 9 11 16 25 23 28 27 28 28 29 29 19 18 17 17
1 1 1 0 1 1 1 1 3 4 6 7 4 5 6 6 6 7 8 9 9 9 9 9 8 9 9 9 8 10 11 12 11 11 9 9 10 10 11 11 12 11 12 11 12 11 11 10 11 10 18 28 28 29 29 29 30 29 29 20 15 16
1 1 1 1 1 1 1 2 2 5 7 6 5 5 6 7 8 8 9 9 8 9 10 11 10 9 9 10 8 9 10 11 11 10 11 10 10 10 11 12 10 11 11 12 11 12 11 11 11 12 13 15 19 21 27 31 31 30 30 29 23 29
4 4 3 4 1 1 2 3 4 5 5 6 6 6 6 6 8 9 9 10 10 9 9 10 9 10 9 9 9 8 9 9 9 10 11 10 9 10 10 11 11 11 11 11 11 11 11 11 11 11 11 11 11 12 14 16 17 24 27 20 17 19
3 4 4 4 3 2 3 4 4 5 5 5 6 6 6 6 7 9 10 11 10 9 9 9 10 10 10 9 9 10 10 9 9 9 11 11 10 10 11 11 13 12 12 12 12 12 11 10 9 9 10 10 11 12 12 12 13 13 12 13 14 15
2 3 3 4 3 3 4 4 5 4 6 6 6 6 6 8 8 9 10 10 9 9 8 8 9 9 10 10 9 9 9 11 10 10 11 12 10 10 11 12 12 12 12 12 12 13 12 11 12 11 17 19 23 19 14 10 9 9 11 15 22 18
1 2 4 4 3 4 4 5 6 5 6 5 5 5 6 8 9 9 9 8 9 9 9 9 9 9 9 10 10 10 10 13 21 16 13 12 19 27 27 24 16 15 14 14 12 12 14 14 14 26 32 29 28 29 30 28 28 27 22 24 31 23
1 2 4 4 3 4 5 6 6 6 6 5 5 5 6 6 8 8 9 9 8 10 10 10 10 9 9 10 10 10 10 12 14 22 23 22 23 24 27 27 29 30 29 21 15 16 28 31 32 31 29 30 29 30 29 29 28 28 28 28 20 15
2 3 4 4 4 5 5 7 7 5 6 5 5 4 5 6 6 8 9 9 9 10 10 9 10 10 10 10 9 10 10 10 13 17 22 22 20 25 26 26 27 28 28 29 26 21 14 22 29 31 30 30 30 28 27 27 27 27 27 26 26 16
2 3 4 4 4 6 6 7 7 5 5 5 5 5 6 6 7 9 10 9 9 10 10 10 9 10 10 10 10 10 9 10 11 13 17 24 26 24 22 25 25 25 26 28 28 29 26 26 28 31 29 29 28 28 27 27 28 27 28 28 16 10
3 4 4 4 5 6 6 7 7 5 5 5 6 5 5 6 8 8 8 8 9 10 9 9 9 10 10 10 10 10 10 10 10 10 12 13 17 24 23 19 18 20 23 26 28 28 28 28 28 29 29 29 28 28 27 26 20 25 27 22 12 10
4 4 4 5 6 6 6 8 7 5 5 5 5 5 6 7 8 8 10 14 11 7 8 9 9 10 10 10 10 10 10 10 10 10 10 10 12 13 15 18 21 24 26 23 22 25 28 27 28 29 28 29 28 28 28 26 13 12 11 11 9 9
4 5 5 5 5 5 6 9 7 5 5 5 4 5 7 7 8 8 8 8 9 8 8 8 9 9 10 10 10 9 10 10 10 11 10 11 11 11 13 14 14 14 20 30 28 28 26 28 29 28 28 27 28 26 25 12 9 9 10 10 10 10
Wind_Direction
29 20 12 355 2 360 357 350 358 3 6 5 16 8 1 358 360 3 5 25 24 29 26 28 25 28 31 21 10 13 23 23 23 23 13 3 357 354 352 349 349 352 346 349 344 342 341 338 333 328 323 317 310 300 291 286 279 273 273 271 266 261
18 21 358 350 342 343 338 329 336 350 344 358 351 350 352 357 359 356 359 355 5 2 14 17 25 23 21 9 12 13 13 9 11 7 10 0 339 337 337 341 343 345 344 342 343 339 340 342 335 335 326 320 305 296 295 285 286 279 271 273 267 263
353 326 321 316 324 311 303 305 293 289 321 329 333 344 329 345 340 350 339 346 339 351 344 344 359 1 357 360 6 12 5 3 1 356 345 334 346 336 335 334 333 326 328 330 332 334 334 339 337 336 335 328 315 303 283 282 276 269 269 267 273 268
252 264 284 282 307 307 330 333 3 354 316 277 290 325 317 297 316 320 324 322 318 327 303 306 315 312 346 335 350 350 347 346 340 333 338 339 317 333 328 331 332 331 319 312 305 309 319 324 330 330 334 326 321 312 306 295 283 274 270 264 266 266
224 224 224 234 225 238 254 297 266 247 252 264 269 226 273 253 269 280 309 313 317 316 306 303 303 293 310 303 300 291 300 295 308 309 316 312 313 314 311 313 321 324 324 320 316 311 309 305 303 308 314 313 311 308 305 300 293 287 284 276 266 264
236 223 231 248 245 230 238 231 241 245 247 239 243 241 253 272 273 275 297 303 300 291 303 299 277 291 295 302 289 284 285 277 278 279 281 282 295 309 307 305 303 306 310 308 307 310 309 309 304 298 291 289 290 292 292 295 294 285 278 277 279 275
174 180 205 204 221 225 232 237 238 243 253 256 247 248 245 241 254 245 260 254 273 294 300 300 301 310 310 310 309 301 296 289 285 286 282 283 284 282 290 297 304 304 300 300 299 299 302 302 302 296 291 283 278 277 278 278 279 281 279 275 273 273
212 213 222 234 237 227 241 256 261 267 267 268 248 243 263 248 238 238 247 266 277 293 305 301 312 305 300 304 306 303 301 298 296 294 288 279 282 281 272 275 275 269 276 281 288 290 292 294 292 289 286 286 283 276 272 273 271 269 269 273 272 270
208 212 222 218 228 229 231 233 248 249 252 262 265 243 240 253 225 234 222 256 259 286 295 298 291 291 299 303 305 310 311 306 300 295 291 288 283 287 290 281 278 271 269 274 272 275 282 289 292 293 291 290 285 278 273 270 266 266 272 270 267 264
211 216 223 224 232 236 236 236 234 244 248 251 257 249 245 276 264 270 296 305 291 284 296 285 275 277 273 277 283 282 281 282 283 286 290 296 295 292 289 289 287 285 279 276 276 275 276 276 277 277 282 286 289 289 286 282 277 269 258 256 257 260
210 217 226 237 265 288 317 344 347 348 341 335 339 351 2 354 17 13 11 1 357 344 328 323 312 302 299 290 280 273 270 267 268 270 271 267 268 270 268 271 271 276 280 278 276 279 276 274 274 276 276 282 282 278 278 279 279 278 275 268 259 249
344 11 34 42 48 42 37 23 12 10 19 9 11 22 5 14 9 8 359 354 341 332 329 322 320 323 322 322 321 320 317 312 307 301 298 294 284 278 273 266 264 264 268 273 274 272 275 276 277 273 272 270 270 273 275 278 277 274 272 274 277 273
78 73 65 57 52 45 38 21 4 10 21 13 13 10 357 10 4 2 356 350 345 342 341 342 338 334 330 327 325 322 323 319 316 313 310 309 307 304 299 291 287 284 278 278 281 282 279 276 274 272 276 280 278 276 275 272 271 271 274 274 271 271
104 97 95 85 78 65 45 23 23 34 16 8 8 351 353 10 8 358 345 339 342 341 340 334 328 328 327 334 337 337 334 331 328 324 321 317 316 312 308 303 297 295 295 291 287 283 280 279 273 278 282 282 281 280 276 273 273 270 266 267 270 274
128 131 132 114 69 51 37 46 48 30 7 9 347 357 10 4 360 351 344 339 339 330 329 330 325 325 332 336 333 327 325 322 319 319 320 319 318 315 310 304 303 299 298 295 294 291 289 287 283 285 285 285 285 285 283 278 276 275 272 269 268 266
132 129 120 107 78 69 70 59 50 15 1 358 2 13 5 355 344 340 327 325 326 329 329 324 335 332 327 326 324 322 318 318 314 313 313 312 312 310 309 308 307 305 301 299 296 294 293 290 293 293 294 293 292 290 288 281 278 275 272 271 266 264
138 131 102 75 72 58 44 35 22 5 7 6 2 358 353 336 329 324 321 323 326 331 335 341 334 327 324 323 320 319 315 313 313 313 315 316 312 311 310 309 310 306 304 303 303 300 296 293 296 297 298 298 298 297 296 290 284 279 276 274 272 269
130 119 98 83 73 62 53 36 16 15 359 355 347 339 335 325 320 317 316 324 337 343 342 337 329 326 325 322 321 319 315 314 313 314 318 313 306 303 303 301 304 302 304 304 305 304 299 298 299 300 300 300 299 299 298 295 290 286 281 276 273 271
98 94 93 83 70 57 38 25 18 4 344 336 330 330 321 321 317 318 333 340 340 337 337 334 326 321 320 320 318 314 312 312 311 309 313 304 301 302 301 301 300 301 302 303 305 305 302 300 303 305 304 303 302 302 301 298 293 286 282 278 276 271
93 82 92 89 71 56 32 21 13 352 332 320 320 322 320 320 314 334 342 335 333 332 331 326 322 317 317 315 311 308 305 304 300 298 305 300 302 299 298 302 299 296 297 300 304 307 308 306 308 308 307 304 302 300 297 296 294 291 288 286 284 284
98 96 86 78 67 35 21 8 6 342 324 318 318 317 315 318 329 341 335 328 326 323 322 319 318 315 313 309 305 304 302 301 300 298 298 290 289 290 295 297 295 295 296 302 306 307 304 301 303 306 307 305 305 303 296 291 286 285 280 280 280 277
95 82 81 79 56 21 7 360 352 331 315 317 316 316 315 324 336 328 321 317 317 314 313 315 312 307 305 302 301 298 293 295 296 295 296 292 289 290 292 293 290 292 294 299 296 292 294 296 296 303 306 306 305 305 302 293 287 281 281 280 279 280
94 97 101 88 44 11 360 355 347 323 316 313 317 310 316 324 322 316 314 312 307 305 305 303 301 300 297 293 295 296 293 293 293 295 293 291 290 284 288 290 289 287 287 291 288 286 288 291 298 302 306 306 306 305 303 294 290 290 291 290 285 278
98 98 94 84 38 22 351 357 339 305 308 312 304 306 318 316 311 310 307 304 302 300 298 296 293 289 291 294 294 294 293 290 287 288 290 288 290 291 289 289 288 288 288 288 285 285 288 293 298 301 304 304 304 304 302 300 294 292 287 285 276 276
101 106 113 64 55 24 348 360 321 301 302 298 297 310 310 307 308 303 302 300 299 299 296 294 292 293 293 291 291 291 292 292 291 289 287 287 288 288 289 292 290 292 292 290 288 287 287 287 293 298 299 302 303 303 302 299 296 293 291 285 282 284
116 116 93 70 37 12 346 324 314 304 304 295 299 305 306 305 300 299 300 299 297 297 295 294 294 291 291 291 291 289 288 294 294 291 289 287 288 291 292 291 292 291 292 294 294 288 284 283 287 292 295 296 297 297 297 297 296 296 293 290 289 292
98 90 28 6 21 334 317 314 316 306 300 294 307 303 306 302 302 301 299 297 297 297 297 297 295 295 294 290 292 297 299 296 297 296 290 287 290 290 291 292 295 294 294 294 292 291 285 280 280 275 283 286 289 291 291 291 290 290 289 286 283 279
70 48 352 322 300 311 288 299 302 300 290 299 303 301 299 304 306 304 300 300 301 301 303 303 299 292 290 294 297 294 292 291 296 294 295 294 289 291 290 292 291 289 286 285 282 281 277 273 272 274 274 275 277 278 278 280 282 283 283 282 280 281
356 344 335 321 301 301 302 296 281 271 287 297 299 300 301 302 303 302 303 305 307 304 302 301 303 303 302 303 300 292 287 287 286 290 292 289 288 289 286 287 286 285 281 276 278 275 276 274 272 271 269 267 267 263 265 270 272 273 276 278 276 275
341 315 314 307 306 320 303 295 286 286 290 291 294 296 301 301 303 306 308 307 305 302 302 300 296 300 305 302 299 296 293 284 284 286 286 289 287 287 286 285 285 282 279 281 281 280 278 280 276 270 271 267 260 260 261 256 256 258 249 261 266 261
299 283 293 295 306 308 302 292 292 295 295 295 298 301 307 305 306 305 303 303 302 300 301 298 301 302 302 300 292 280 281 289 288 282 276 271 265 269 276 279 283 284 289 288 293 298 294 292 292 289 294 293 296 298 293 273 253 235 238 241 250 259
248 282 292 293 302 302 302 298 297 294 287 290 290 299 305 308 311 309 304 304 303 302 304 304 303 302 299 295 294 293 286 279 291 292 292 291 293 294 295 297 297 297 298 298 293 291 296 299 297 302 304 305 303 300 298 297 297 297 295 293 292 291
265 285 297 294 302 303 300 296 293 291 290 287 293 298 300 306 308 304 302 307 306 307 307 306 305 303 298 293 294 294 297 302 301 299 298 296 298 301 303 303 303 303 304 303 301 300 301 302 304 305 305 303 300 300 300 299 298 297 296 295 294 289
290 286 287 296 303 298 294 291 290 287 287 288 291 294 295 298 299 302 304 306 306 306 305 303 302 302 299 297 295 297 301 305 309 309 307 306 305 308 308 306 307 307 307 307 306 306 303 304 305 304 304 306 305 306 306 304 302 300 297 294 295 292
267 281 286 294 293 292 289 289 290 289 289 296 297 298 299 298 299 299 301 302 303 303 303 303 303 301 300 300 302 303 305 307 309 311 314 317 316 313 310 310 310 310 309 309 309 309 308 309 310 310 313 314 313 312 311 309 307 305 302 301 298 288
281 285 286 289 286 284 285 285 289 295 298 299 297 295 289 297 298 297 296 299 300 302 304 305 303 302 301 298 298 299 302 300 299 298 302 307 314 322 322 316 308 307 309 310 310 312 312 314 316 316 316 315 314 312 312 311 313 313 310 310 306 299
290 287 285 285 286 287 286 284 289 294 294 293 293 298 302 304 303 298 299 298 298 294 298 301 302 301 298 298 298 298 298 298 298 299 299 299 304 306 307 312 318 319 319 317 315 313 316 317 316 316 316 316 315 314 314 318 317 308 303 300 285 282
285 281 281 280 279 279 284 287 290 292 288 290 297 307 309 307 305 303 302 304 304 303 301 301 299 297 295 295 294 295 298 299 300 301 298 299 296 294 296 301 304 304 309 312 315 315 316 317 318 317 316 315 314 313 317 316 304 299 293 291 288 286